Regional Weather Roundup
Issued by NWS

Current Version | Previous Version | Text Only | Print | Product List | Glossary On
Versions: 1 2 3 4 5 6 7 8 9 10 11 12 13 14 15 16 17 18 19 20 21 22 23 24 25 26 27 28 29 30 31 32 33 34 35 36 37 38 39 40 41 42 43 44 45 46 47 48 49 50
000
ASUS44 KBMX 282010
RWRAL

ALABAMA REGIONAL WEATHER ROUNDUP
NATIONAL WEATHER SERVICE BIRMINGHAM AL
200 PM CST FRI NOV 28 2014

NOTE: "FAIR" INDICATES FEW OR NO CLOUDS BELOW 12,000 FEET
WITH NO SIGNIFICANT WEATHER AND/OR OBSTRUCTIONS TO VISIBILITY.

THE REMARK "TC" DENOTES TEMPERATURE IN DEGREES CELSIUS.

ALZ001>011-014-016>018-020-282100-
NORTH ALABAMA

CITY           SKY/WX    TMP DP  RH WIND       PRES   REMARKS
MUSCLE SHOALS  SUNNY     50  23  34 S7        30.29F
HUNTSVILLE     SUNNY     50  22  33 S8        30.28F
DECATUR        SUNNY     48  21  34 S9        30.29F
HALEYVILLE     FAIR      49  24  37 CALM      30.29F
GADSDEN        SUNNY     46  16  29 CALM      30.32F
$$

ALZ012-013-022-023-030>036-040>044-282100-
WEST CENTRAL ALABAMA

CITY           SKY/WX    TMP DP  RH WIND       PRES   REMARKS
TUSCALOOSA     SUNNY     53  16  23 S6        30.32F
$$

ALZ015-024>027-033>036-040>044-282100-
CENTRAL ALABAMA

CITY           SKY/WX    TMP DP  RH WIND       PRES   REMARKS
BIRMINGHAM     SUNNY     51  14  22 W3        30.33F
MONTGOMERY     SUNNY     54   9  16 CALM      30.34F
SHELBY CO ARPT SUNNY     50  17  27 CALM      30.32F
MAXWELL AFB    SUNNY     53  13  20 VRB1      30.33F
GREENVILLE     FAIR      57  16  20 CALM      30.31F
$$

ALZ019-021-028-029-037-038-045>048-282100-
EAST CENTRAL ALABAMA

CITY           SKY/WX    TMP DP  RH WIND       PRES   REMARKS
ANNISTON       SUNNY     51  16  24 N3        30.32F
ALEXANDER CITY SUNNY     54   6  14 CALM      30.31F
AUBURN         SUNNY     48  16  27 N5        30.33F
$$

ALZ051>064-282100-
SOUTHWEST ALABAMA

CITY           SKY/WX    TMP DP  RH WIND       PRES   REMARKS
MOBILE         SUNNY     58  27  30 VRB3      30.32F
BROOKLEY FIELD SUNNY     56  28  34 E5        30.34F
EVERGREEN      SUNNY     58  24  27 VRB5      30.32F
$$

ALZ049-050-065>069-282100-
SOUTHEAST ALABAMA

CITY           SKY/WX    TMP DP  RH WIND       PRES   REMARKS
DOTHAN         SUNNY     54  24  31 VRB3      30.34F
OZARK          SUNNY     55  21  27 VRB1      30.31F
TROY           SUNNY     55  16  21 VRB5      30.33F
EUFAULA        FAIR      55  22  27 VRB3      30.32S
$$



USA.gov is the U.S. government's official web portal to all federal, state and local government web resources and services.